TimeEDT,TemperatureF,Dew PointF,Humidity,Sea Level PressureIn,VisibilityMPH,Wind Direction,Wind SpeedMPH,Gust SpeedMPH,PrecipitationIn,Events,Conditions,WindDirDegrees,DateUTC
12:54 AM,52.0,33.1,49,30.45,10.0,NNE,4.6,-,N/A,,Clear,30,2012-10-13 04:54:00
1:54 AM,51.1,33.1,50,30.46,10.0,NE,5.8,-,N/A,,Clear,40,2012-10-13 05:54:00
2:54 AM,50.0,32.0,50,30.47,10.0,ENE,10.4,-,N/A,,Clear,70,2012-10-13 06:54:00
3:54 AM,48.0,28.9,48,30.47,10.0,ENE,5.8,-,N/A,,Clear,60,2012-10-13 07:54:00
4:54 AM,46.9,30.0,52,30.48,10.0,ENE,4.6,-,N/A,,Clear,60,2012-10-13 08:54:00
5:54 AM,46.9,30.0,52,30.51,10.0,ENE,3.5,-,N/A,,Clear,60,2012-10-13 09:54:00
6:54 AM,46.0,30.9,56,30.52,10.0,ENE,4.6,-,N/A,,Clear,70,2012-10-13 10:54:00
7:54 AM,46.9,30.0,52,30.52,10.0,ENE,4.6,-,N/A,,Clear,70,2012-10-13 11:54:00
8:54 AM,48.9,30.0,48,30.53,10.0,ENE,10.4,-,N/A,,Clear,60,2012-10-13 12:54:00
9:54 AM,48.9,30.0,48,30.54,10.0,East,5.8,-,N/A,,Clear,100,2012-10-13 13:54:00
10:54 AM,51.1,28.9,43,30.53,10.0,SE,6.9,-,N/A,,Clear,130,2012-10-13 14:54:00
11:54 AM,51.1,30.0,44,30.53,10.0,ESE,6.9,-,N/A,,Clear,110,2012-10-13 15:54:00
12:54 PM,53.1,30.9,43,30.49,10.0,ESE,8.1,-,N/A,,Clear,120,2012-10-13 16:54:00
1:54 PM,54.0,33.1,45,30.45,10.0,SE,9.2,-,N/A,,Clear,130,2012-10-13 17:54:00
2:54 PM,57.0,25.0,29,30.42,10.0,SSE,6.9,-,N/A,,Clear,150,2012-10-13 18:54:00
3:54 PM,57.0,24.1,28,30.40,10.0,SSE,9.2,-,N/A,,Clear,160,2012-10-13 19:54:00
4:54 PM,57.0,33.1,40,30.40,10.0,South,8.1,-,N/A,,Clear,170,2012-10-13 20:54:00
5:54 PM,55.9,34.0,44,30.40,10.0,South,6.9,-,N/A,,Clear,170,2012-10-13 21:54:00
6:54 PM,54.0,33.1,45,30.38,10.0,SSE,6.9,-,N/A,,Clear,160,2012-10-13 22:54:00
7:54 PM,55.0,35.1,47,30.36,10.0,South,5.8,-,N/A,,Clear,170,2012-10-13 23:54:00
9:54 PM,53.1,37.9,57,30.36,10.0,South,5.8,-,N/A,,Clear,190,2012-10-14 01:54:00
10:54 PM,55.9,43.0,62,30.33,10.0,South,9.2,-,N/A,,Clear,190,2012-10-14 02:54:00
11:54 PM,55.9,43.0,62,30.32,10.0,South,11.5,18.4,N/A,,Clear,180,2012-10-14 03:54:00